UK-DMC 2

Last updated on Fri Nov 07 2025 00:02:39 GMT+0000 (Coordinated Universal Time)

1 35683U 09041C 25310.29637376 .00001361 00000+0 20719-3 0 9995 2 35683 97.8539 86.2377 0001053 88.2577 271.8753 14.75496773873696
UTC large
Height (km)
Speed (km/s)
/
Latitude / Longitude
Inclination (degrees)
Orbital Period (minutes)
Azimuth
Elevation
Range (km)
Doppler Factor

Next 0 passes for location: London (51.5072 / 0.1276)

Sorry there are no passes over London.